Tracking 20093 objects as of 15-Dec-2019
HD Live streaming from Space Station
objects crossing your sky now

BPA 1/SL-24 R/B

Track BPA 1/SL-24 R/B now!
10-day predictions


NORAD ID: 36600
Int'l Code: 2010-028C
Perigee: 721.4 km
Apogee: 1,273.8 km
Inclination: 98.3 °
Period: 104.9 minutes
Semi major axis: 7368 km
RCS: 6.6389 m2 (large)
Launch date: June 15, 2010
Source: Commonwealth of Independent States (former USSR) (CIS)
Launch site: Orenburg, Russia (OREN)

Note: This is a ROCKET BODY
aabbcc
Your satellite tracking list
Your tracking list is empty




NASA's NSSDC Master Catalog

Two Line Element Set (TLE):
1 36600U 10028C   19348.85822330 -.00000030 +00000-0 +34149-5 0  9992
2 36600 098.2876 120.0813 0374894 182.2316 336.2975 13.72541652475827
Source of the keplerian elements: AFSPC